Location: Bonningues
(50.7927°N, 2.0150°E)
Time: 16:07:37
(UTC+00:00)

IRIDIUM 106 - Pass Details

Date: 08 August 2020
Orbit: 776 x 779 km, 86.4° (Epoch: 18 September)

Event Time Altitude Azimuth Distance (km) Brightness Sun altitude
Rises 20:01:41 0° 173° (S) 3,251 7.2 -5.9°
Reaches altitude 10° 20:04:02 10° 171° (S) 2,327 6.4 -6.2°
Maximum altitude 20:09:11 66° 90° (E) 852 4.4 -6.8°
Drops below altitude 10° 20:14:23 10° 9° (N) 2,344 7.2 -7.5°
Sets 20:16:45 0° 7° (N) 3,277 8.0 -7.8°
